TimeEST,TemperatureF,Dew PointF,Humidity,Sea Level PressureIn,VisibilityMPH,Wind Direction,Wind SpeedMPH,Gust SpeedMPH,PrecipitationIn,Events,Conditions,WindDirDegrees,DateUTC
12:53 AM,73.9,72.0,93,30.07,10.0,Variable,3.5,-,N/A,,Partly Cloudy,0,2014-01-11 05:53:00
1:07 AM,73.9,72.0,93,30.07,10.0,Calm,Calm,-,N/A,,Mostly Cloudy,0,2014-01-11 06:07:00
1:53 AM,75.0,72.0,90,30.07,10.0,ESE,6.9,-,N/A,,Overcast,120,2014-01-11 06:53:00
2:11 AM,75.0,72.0,90,30.07,10.0,East,5.8,-,N/A,,Scattered Clouds,90,2014-01-11 07:11:00
2:34 AM,73.9,72.0,93,30.06,10.0,East,3.5,-,N/A,,Mostly Cloudy,90,2014-01-11 07:34:00
2:53 AM,73.9,72.0,93,30.06,10.0,ESE,8.1,-,N/A,,Mostly Cloudy,120,2014-01-11 07:53:00
3:04 AM,75.0,72.0,90,30.06,10.0,ESE,9.2,-,N/A,,Partly Cloudy,120,2014-01-11 08:04:00
3:53 AM,75.9,73.0,91,30.05,10.0,SE,10.4,-,N/A,,Scattered Clouds,130,2014-01-11 08:53:00
4:53 AM,75.9,72.0,87,30.04,10.0,SE,10.4,-,N/A,,Clear,130,2014-01-11 09:53:00
5:53 AM,75.9,72.0,87,30.05,10.0,SE,12.7,-,N/A,,Partly Cloudy,140,2014-01-11 10:53:00
6:53 AM,75.9,72.0,87,30.06,10.0,SSE,13.8,-,N/A,,Partly Cloudy,150,2014-01-11 11:53:00
7:53 AM,77.0,71.1,82,30.08,10.0,SSE,15.0,-,N/A,,Clear,160,2014-01-11 12:53:00
8:53 AM,78.1,71.1,79,30.11,10.0,SSE,13.8,-,N/A,,Clear,160,2014-01-11 13:53:00
9:53 AM,79.0,71.1,77,30.12,10.0,SSE,16.1,-,N/A,,Clear,160,2014-01-11 14:53:00
10:53 AM,80.1,72.0,76,30.12,10.0,South,11.5,-,N/A,,Clear,170,2014-01-11 15:53:00
11:53 AM,80.1,72.0,76,30.10,10.0,South,12.7,-,N/A,,Partly Cloudy,170,2014-01-11 16:53:00
12:53 PM,80.1,71.1,74,30.06,10.0,South,15.0,-,N/A,,Partly Cloudy,180,2014-01-11 17:53:00
1:53 PM,79.0,71.1,77,30.02,10.0,South,13.8,-,N/A,,Clear,170,2014-01-11 18:53:00
2:53 PM,79.0,72.0,79,30.02,10.0,SSW,8.1,-,N/A,,Clear,200,2014-01-11 19:53:00
3:53 PM,79.0,72.0,79,30.01,10.0,SSW,9.2,-,N/A,,Clear,200,2014-01-11 20:53:00
4:53 PM,78.1,72.0,81,30.01,10.0,South,8.1,-,N/A,,Clear,190,2014-01-11 21:53:00
5:53 PM,77.0,72.0,84,30.02,10.0,SSW,4.6,-,N/A,,Clear,210,2014-01-11 22:53:00
6:53 PM,75.9,72.0,87,30.04,10.0,West,3.5,-,N/A,,Clear,280,2014-01-11 23:53:00
7:53 PM,75.9,73.0,91,30.06,10.0,Calm,Calm,-,N/A,,Clear,0,2014-01-12 00:53:00
8:53 PM,75.0,72.0,90,30.08,9.0,Calm,Calm,-,N/A,,Clear,0,2014-01-12 01:53:00
9:53 PM,73.9,72.0,93,30.09,9.0,Calm,Calm,-,N/A,,Clear,0,2014-01-12 02:53:00
10:53 PM,73.0,72.0,96,30.09,7.0,Calm,Calm,-,N/A,,Clear,0,2014-01-12 03:53:00
11:53 PM,73.0,72.0,96,30.08,6.0,Calm,Calm,-,N/A,,Clear,0,2014-01-12 04:53:00